Location: Lake Almanor
(40.2485°N, 121.1442°W)
Time: 10:47:39
(UTC-08:00)

STARLINK-1076 - Pass Details

Date: 28 January 2020
Orbit: 348 x 351 km, 53.0° (Epoch: 18 February)

Event Time Altitude Azimuth Distance (km) Brightness Sun altitude
Rises 18:28:56 0° 319° (NW) 2,166 7.1 -13.7°
Reaches altitude 10° 18:31:33 10° 345° (NNW) 1,321 5.6 -14.2°
Enters shadow 18:33:05 15° 16° (NNE) 1,075 4.8 -14.5°
